Regional Weather Roundup
Issued by NWS Wakefield, VA

Home | Current Version | Previous Version | Graphics & Text | Print | Product List | Glossary On
Versions: 1 2 3 4 5 6 7 8 9 10 11 12 13 14 15 16 17 18 19 20 21 22 23 24 25 26 27
000
ASUS41 KAKQ 172210
RWRAKQ

REGIONAL WEATHER ROUNDUP
NATIONAL WEATHER SERVICE WAKEFIELD VA
600 PM EDT THU APR 17 2014

Note: "fair" indicates few or no clouds below 12,000 feet with no
significant weather and/or obstructions to visibility. * = Denotes
station may not report precipitation (e.g., rain,snow,etc.),
thunder or fog.

VAZ042-051-052>054-056-172300-
NORTHERN VIRGINIA

CITY           SKY/WX    TMP DP  RH WIND       PRES   REMARKS
WASH NATIONAL  PTSUNNY   54  34  46 E15       30.57S
DULLES         PTSUNNY   53  30  41 E12       30.54S
FORT BELVOIR   MOSUNNY   54  30  40 SE10      30.56S
QUANTICO       MOSUNNY   54  36  50 SE13      30.56S
FREDERICKSBRG* MOSUNNY   55  34  44 E12       30.54S
STAFFORD*      MOSUNNY   55  35  47 SE7G17    30.58S
WARRENTON      MOSUNNY   58  39  49 SE7       30.52S
CULPEPER*      MOSUNNY   59  25  27 E6        30.53S
MANASSAS*      SUNNY     55  32  41 SE13      30.54R
LEESBURG*      SUNNY     55  32  41 SE8       30.54S
WINCHESTER     SUNNY     55  28  35 SE10      30.50S
$$

VAZ048-049-060>072-079>083-172300-
CENTRAL AND SOUTH CENTRAL VIRGINIA...AND NORTH CENTRAL NORTH CAROLINA

CITY           SKY/WX    TMP DP  RH WIND       PRES   REMARKS
RICHMOND       PTSUNNY   56  33  42 E12       30.52R
CHESTERFIELD*  NOT AVBL
HANOVER        MOSUNNY   55  33  43 E8        30.54R
TAPPAHANNOCK*  MOSUNNY   53  29  39 NE7       30.56R
CHARLOTTSVILLE SUNNY     58  27  30 E7        30.48F
ORANGE*        MOSUNNY   55  32  41 NE10      30.52S
LOUISA*        MOSUNNY   57  32  38 E8        30.49S
FARMVILLE*     SUNNY     61  27  27 E9        30.46F
SOUTH HILL*    SUNNY     63  37  39 NE7       30.52S
ROANOKE RAPIDS CLEAR     61  41  48 NE8       30.47F
RALEIGH        MOSUNNY   63  32  31 SE8G22    30.44F
$$

VAZ088>098-172300-
SOUTHEAST VIRGINIA

CITY           SKY/WX    TMP DP  RH WIND       PRES   REMARKS
NORFOLK        PTSUNNY   49  38  65 NE16G24   30.55S
VIRGINIA BEACH PTSUNNY   48  38  68 NE20G28   30.54S
NORFOLK NAVAL  PTSUNNY   49  38  65 NE21      30.56F
WEST POINT*    SUNNY     55  33  42 E12       30.56S
NEWPORT NEWS   LGT RAIN  52  39  61 E16       30.55S
LANGLEY AFB    MOSUNNY   49  39  69 E20       30.56S
FORT EUSTIS    PTSUNNY   51  40  65 E10       30.53S
WILLIAMSBURG*  CLOUDY    55  43  62 E10       30.55S
FRANKLIN*      SUNNY     54  39  58 E15G21    30.53S
WAKEFIELD      SUNNY     54  38  54 VRB6      30.53R
$$

VAZ020-022-025-037-045-172300-
WESTERN AND SOUTHWEST VIRGINIA

CITY           SKY/WX    TMP DP  RH WIND       PRES   REMARKS
STAUNTON*      SUNNY     55  21  27 SE3       30.49F
HOT SPRINGS VA SUNNY     46  21  36 E7        30.47S
LYNCHBURG      SUNNY     62  24  23 VRB3      30.47F
DANVILLE       SUNNY     62  25  24 VRB6      30.45F
MARTINSVILLE   SUNNY     61  26  25 CALM      30.46F
ROANOKE        SUNNY     56  24  29 SE7       30.47F
BLACKSBURG     SUNNY     55  32  41 SE7       30.44F
DUBLIN*        SUNNY     55  25  31 SE10      30.41F
MARION*        SUNNY     56  24  29 E14       30.39F
HILLSVILLE*    SUNNY     54  12  19 SE8       30.43F
RICHLANDS*     CLEAR     63  24  22 SE10G17   30.33S
WISE*          SUNNY     64   7  10 SE5       30.32S
ABINGDON*      SUNNY     67  25  20 E10       30.31S
$$

MDZ021>025-VAZ099-100-172300-
SOUTHERN MARYLAND AND THE DELMARVA PENINSULA

CITY           SKY/WX    TMP DP  RH WIND       PRES   REMARKS
PATUXENT RIVER PTSUNNY   49  32  52 E13       30.57R
BAY BRIDGE APT MOSUNNY   50  30  46 E12       30.59S
LEONARDTOWN    MOSUNNY   48  32  53 E6G18     30.59R
DOVER          MOSUNNY   46  33  61 E12G22    30.57S
GEORGETOWN     CLOUDY    44  31  60 E15       30.61F
EASTON         MOSUNNY   50  34  53 E13G23    30.63S
CAMBRIDGE      MOSUNNY   52  32  46 E14G20    30.59R
SALISBURY      CLOUDY    47  32  56 E15G23    30.59F
OCEAN CITY     CLOUDY    44  33  65 NE16G22   30.60F
WALLOPS ISLAND PTSUNNY   47  35  63 E20G28    30.58S
ACCOMACK*      MOSUNNY   45  32  61 E17G23    30.56S
$$

NCZ012>017-030>032-172300-
EASTERN NORTH CAROLINA

CITY           SKY/WX    TMP DP  RH WIND       PRES   REMARKS
ELIZABETH CITY MOSUNNY   51  41  68 NE20      30.52S
AHOSKIE*       SUNNY     56  39  52 NE12      30.50S
EDENTON*       SUNNY     54  42  64 NE13G20   30.50S
CURRITUCK*     PTSUNNY   49  38  66 NE17      30.53S
KILL DEVIL HLS   N/A     49  42  75 N13G23    30.48F
MANTEO         SUNNY     49  42  75 NE20G28   30.49F
CAPE HATTERAS  CLOUDY    54  47  77 NE15G29   30.44F
GOLDSBORO      SUNNY     64  44  48 NE9       30.42S
WASHINGTON     SUNNY     60  44  54 E12       30.47S
GREENVILLE     SUNNY     63  43  48 E9        30.45S
NEW BERN       SUNNY     61  44  53 NE14      30.45F
WILMINGTON     SUNNY     65  48  54 E13       30.39F
$$

VAZ048-172300-
ELSEWHERE

CITY           SKY/WX    TMP DP  RH WIND       PRES   REMARKS
HARRISBURG PA  MOSUNNY   55  29  36 SE12      30.54F
BALTIMORE      PTSUNNY   50  31  48 E14G20    30.57S
ANNAPOLIS      MOSUNNY   49  34  56 E13G21    30.59S
ANDREWS AFB    MOSUNNY   50  32  50 E12       30.57R
WILMINGTON DE  SUNNY     51  30  44 E12       30.61S
PHILADELPHIA   MOSUNNY   49  28  44 E13       30.63S
WILDWOOD NJ*   CLOUDY    43  28  56 NE15G22   30.64S
ATLANTIC CITY  CLOUDY    43  30  60 E17       30.64S
HENDERSON NC   MOSUNNY   61  31  33 NE7       30.45S
GREENSBORO     MOSUNNY   60  23  24 E8        30.42F
ROCKY MOUNT      N/A    N/A N/A N/A MISG      30.45F
FAYETTEVILLE   SUNNY     65  39  38 NE10      30.40F
CHARLOTTE      MOSUNNY   63  25  23 E10       30.39F
$$

VAZ100-172300-
MARINE

STATION/POSITION TIME  TEMP    WIND        PRES    WAVE   SWELL
                       AIR SEA DIR/SP/G            HT/PER HT/PER
                 (UTC) (F)     (DEG/KT/KT) (MB)    (FT/S) (FT/S)
44066 TX TWR #4  2200   40 45   50/ 23/ 27 1036.2F   9/ 9   5/ 9
CAPE MAY NJ      2200   42 52   80/  8/ 16 1036.8S
LEWES DE         2200   43 49   80/ 17/ 20 1036.2S
15NM E FENWICK I 2200   42 45              1036.0F   8/ 9
OCEAN-CITY-INLET 2200   44 48   70/ 11/ 18 1035.9F
WACHAPREAGUE VA  2200   46 56   50/ 20/ 25 1034.6S
THOMAS POINT MD  2200   48 53   90/ 14/ 16 1036.3R
GOOSES REEF MD   2200   48      90/ 14/ 16 1036.5F
COVE POINT MD    2200   48     120/ 11/ 13 1035.2S
SOLOMONS ISLAND  2200      52                N/A
BISHOPS HEAD MD  2200   49 55   60/  8/ 16 1035.1R
PINEY POINT MD   2200          100/ 14/ 16   N/A
POTOMAC MD       2200   49      70/ 16/ 19 1034.2F
CAMBRIDGE MD     2200   47 56   60/ 12/ 17 1035.3S
LEWISETTA VA     2200   49 53   70/ 15/ 20 1034.8R
RAPPAHANNOCK LGT 2200           50/ 15/ 16 1035.0S
STINGRAY PT      2200   49      80/ 16/ 19 1034.6S
YORK RVR RNG VA  2200   48     100/ 16/ 19 1033.8S
YORKTOWN VA      2200   48 56   90/ 16/ 18 1034.5S
JAMESTOWN VA     2200   51     130/ 10/ 16   N/A
DOMINION TERM VA 2200   49      60/ 14/ 20 1034.5S
KIPTOPEKE VA     2200      53   80/ 12/ 19   N/A
CHES BAY BRIDGE  2200   45 52   40/ 22/ 25 1034.1S
CAPE HENRY VA    2200   45      30/ 22/ 25   N/A
CHESAPEAKE LGHT  2100   45      40/ 22/ 25 1034.4F
WILLOUBY STN VA  2200   46      70/ 19/ 21 1033.5F
S CRANEY ISL VA  2200           30/ 17/ 21 1034.5S
CAPE HENRY BUOY  2200      47                N/A     7/ 7   2/11
1ST LANDING BUOY 2200      46                N/A     8/11   5/11
64NM E OF VA BCH 2200   50 51   20/ 23/ 29 1031.9R   9/ 8
DUCK PIER NC     2200   47 51   20/ 22/ 26 1031.8F
44100 DUCK FRF   2200      47                N/A     9/10   2/11
44056 DUCK FRF   2200      50                N/A     8/ 8   2/11
OREGON INLET NC  2200   49 52   10/ 14/ 20 1031.8F
HATTERAS NC      2200   53 56   20/ 13/ 21 1030.7F
CAPE LOOKOUT NC  2100   57      10/ 18/ 22 1030.2F
FRYING PAN SHLS  2200   61 62   60/ 21/ 25 1028.2F   8/ 8   3/ 8
$$



USA.gov is the U.S. government's official web portal to all federal, state and local government web resources and services.